Regional Weather Roundup
Issued by NWS Memphis, TN

Home | Current Version | Previous Version | Text Only | Print | Product List | Glossary On
Versions: 1 2 3 4 5 6 7 8 9 10 11 12 13 14 15 16 17 18 19 20 21 22 23 24 25 26 27 28 29 30 31 32 33 34 35 36 37 38 39 40 41 42 43 44 45 46 47 48 49 50
000
ASUS44 KMEG 251810
RWRMEG
MEMPHIS CWA HOURLY WEATHER ROUNDUP
NATIONAL WEATHER SERVICE MEMPHIS TN
100 PM CDT MON JUL 25 2016

...WEST TENNESSEE...

CITY           SKY/WX    TMP DP  RH WIND       PRES   REMARKS
MEMPHIS INTL   MOSUNNY   95  75  52 S8        30.01S HX 107
6HR MIN TEMP:  79; 6HR MAX TEMP:  95;

NWS MEMPHIS      N/A     95 N/A N/A MISG        N/A
JACKSON        MOSUNNY   94  73  50 S12       30.01F HX 103
6HR MIN TEMP:  76; 6HR MAX TEMP:  94;

LEXINGTON      SUNNY     93  72  49 SW9       30.02F HX 100
DYERSBURG      CLOUDY   N/A N/A N/A MISG        N/A
UNION CITY     MOSUNNY   91  79  66 SW8       29.99F HX 107
PARIS          MOSUNNY   90  75  62 SW7       30.03F HX 100


...EASTERN ARKANSAS...

CITY           SKY/WX    TMP DP  RH WIND       PRES   REMARKS
JONESBORO      PTSUNNY   90  78  68 SW8       29.99F HX 104
6HR MIN TEMP:  78; 6HR MAX TEMP:  90;

WEST MEMPHIS   MOSUNNY   90  76  63 VRB3      29.99F HX 101
6HR MIN TEMP:  78; 6HR MAX TEMP:  90;

BATESVILLE     SUNNY     90  72  55 W6        30.01F HX  96
6HR MIN TEMP:  73; 6HR MAX TEMP:  90;

NEWPORT        SUNNY     94  74  52 CALM      30.01F HX 104
6HR MIN TEMP:  77; 6HR MAX TEMP:  94;

WALNUT RIDGE   CLOUDY    91  73  55 W8        29.98F HX 100
6HR MIN TEMP:  77; 6HR MAX TEMP:  91; 6HR PCP:  0.04;

BLYTHEVILLE    MOSUNNY   91  79  67 SW9       30.00F HX 107
6HR MIN TEMP:  79; 6HR MAX TEMP:  91;

NW BLYTHEVILLE PTSUNNY   91  79  66 W7        29.99F HX 107
SEARCY         CLOUDY    93  75  55 VRB3      30.01F HX 104
6HR MIN TEMP:  74; 6HR MAX TEMP:  93;

STUTTGART      SUNNY     93  72  49 SW6       30.01S HX 100
6HR MIN TEMP:  77; 6HR MAX TEMP:  93;

PINE BLUFF     SUNNY     89  72  56 SW6       30.00F HX  96
6HR MIN TEMP:  74; 6HR MAX TEMP:  90;

MONTICELLO     MOSUNNY   91  75  59 CALM      29.99F HX 101
6HR MIN TEMP:  75; 6HR MAX TEMP:  91;



...NORTH MISSISSIPPI...

CITY           SKY/WX    TMP DP  RH WIND       PRES   REMARKS
TUPELO         SUNNY     93  67  42 SE10      30.02F HX  96
6HR MIN TEMP:  78; 6HR MAX TEMP:  94;

OXFORD         MOSUNNY   90  68  48 S6        30.04S HX  93
BATESVILLE     MOSUNNY   92  72  51 SE3       30.01F HX  98
6HR MIN TEMP:  75; 6HR MAX TEMP:  92;

OLIVE BRANCH   MOSUNNY  N/A N/A N/A S12       30.01F
TUNICA         MOSUNNY   90  75  62 S7        30.01S HX 100
CLARKSDALE     SUNNY     93  79  62 VRB6      30.00F HX 110
CORINTH        SUNNY     93  68  43 S12       30.02S HX  97
GREENWOOD      MOSUNNY   93  70  46 NE5       30.00F HX  99
6HR MIN TEMP:  76; 6HR MAX TEMP:  94;

COLUMBUS       MOSUNNY   93  78  59 SE7       30.01S HX 108
6HR MIN TEMP:  75; 6HR MAX TEMP:  93;

GOLDEN TRIANGL MOSUNNY   91  70  49 S12G18    30.01F HX  97


...SOUTHEAST MISSOURI...

CITY           SKY/WX    TMP DP  RH WIND       PRES   REMARKS
KENNETT        MOSUNNY   91  79  66 SW12      29.98F HX 107
WEST PLAINS    CLOUDY    85  72  65 CALM      30.07F HX  91
6HR MIN TEMP:  74; 6HR MAX TEMP:  85; 6HR PCP:  1.66;

POPLAR BLUFF   LGT RAIN  82  74  76 NW12      30.00S
6HR MIN TEMP:  77; 6HR MAX TEMP:  90; 6HR PCP: TRACE;

CAPE GIRARDEAU MOSUNNY   90  76  63 SW8       29.98F HX 101
6HR MIN TEMP:  77; 6HR MAX TEMP:  90;



...NORTHWEST ALABAMA...

CITY           SKY/WX    TMP DP  RH WIND       PRES   REMARKS
MUSCLE SHOALS  SUNNY     92  71  50 SW5       30.04F HX  98
6HR MIN TEMP:  75; 6HR MAX TEMP:  93;



...MIDDLE TENNESSEE...

CITY           SKY/WX    TMP DP  RH WIND       PRES   REMARKS
NASHVILLE      CLOUDY    90  73  57 NW5       30.03F HX  98
6HR MIN TEMP:  78; 6HR MAX TEMP:  91; 6HR PCP: TRACE;

CLARKSVILLE    MOSUNNY   89  75  63 SW7       30.02F HX  99
6HR MIN TEMP:  77; 6HR MAX TEMP:  91;

COLUMBIA       MOSUNNY   97  70  41 SW9       30.02F HX 103


...WESTERN KENTUCKY...

CITY           SKY/WX    TMP DP  RH WIND       PRES   REMARKS
PADUCAH        MOSUNNY   90  74  59 SW9       29.99F HX  99
6HR MIN TEMP:  79; 6HR MAX TEMP:  92;

FORT CAMPBELL  MOSUNNY   91  76  62 SW9       30.01F HX 102
6HR MIN TEMP:  78; 6HR MAX TEMP:  91;



...CENTRAL ARKANSAS...

CITY           SKY/WX    TMP DP  RH WIND       PRES   REMARKS
LITTLE ROCK    MOSUNNY   94  71  47 CALM      29.99F HX 101
6HR MIN TEMP:  78; 6HR MAX TEMP:  94;



SKY/WX REPORTED AS FAIR MEANS FEW OR NO CLOUDS BELOW
12 THOUSAND FEET.





USA.gov is the U.S. government's official web portal to all federal, state and local government web resources and services.